Regional Weather Roundup
Issued by NWS Albany, NY

Home | Current Version | Previous Version | Text Only | Print | Product List | Glossary On
Versions: 1 2 3 4 5 6 7 8 9 10 11 12 13 14 15 16 17 18 19 20 21 22 23 24 25 26 27
000
ASUS41 KALY 222210
RWRALY

NEW YORK STATE HOURLY WEATHER ROUNDUP
NATIONAL WEATHER SERVICE ALBANY NY
500 PM EST WED FEB 22 2017

NOTE: "FAIR" INDICATES FEW OR NO CLOUDS BELOW 12,000 FEET WITH NO
SIGNIFICANT WEATHER AND/OR NO OBSTRUCTIONS TO VISIBILITY.

NYZ032-033-038>043-046>054-057>066-NYZ062>081-082-084-222300-
EAST


CITY           SKY/WX    TMP DP  RH WIND       PRES   REMARKS
ALBANY         PTCLDY    55  35  47 S7        29.87S
GLENS FALLS    CLEAR     53  36  52 S7        29.86R
POUGHKEEPSIE   PTCLDY    52  38  58 S3        29.88F
NEWBURGH       PTCLDY    52  41  66 S5        29.90F
MONTGOMERY     MOCLDY    51  41  68 S6        29.88F
WHITE PLAINS   PTCLDY    52  38  58 NE3       29.90R
ISLIP          CLOUDY    49  41  74 SW8       29.92R
NEW YORK CITY  MOCLDY    56  39  53 S9        29.91R
CENTRAL PARK   PTCLDY    57  39  51 CALM      29.93S
$$

NYZ005>009-017-018-044>046-055-056-222300-
CENTRAL


CITY           SKY/WX    TMP DP  RH WIND       PRES   REMARKS
FULTON         MOCLDY    54  36  50 SE3       29.82S
SYRACUSE       CLOUDY    57  38  48 N3        29.82R
ROME           CLOUDY    56  36  47 E3        29.84F
ELMIRA         LGT RAIN  60  45  57 CALM      29.83S
BINGHAMTON     MOCLDY    54  41  61 SW5       29.85S
MONTICELLO     CLEAR     52  39  62 CALM      29.89F
$$

NYZ026>034-041>043-087-222300-
NORTH


CITY           SKY/WX    TMP DP  RH WIND       PRES   REMARKS
WATERTOWN      CLOUDY    53  40  61 E5        29.81F
FORT DRUM      NOT AVBL
OGDENSBURG     FAIR      52  38  59 CALM      29.82F
MASSENA        CLOUDY    43  36  76 NE6       29.85F
SARANAC LAKE   CLEAR     53  36  52 SW7       29.81S
PLATTSBURGH    CLEAR     46  32  58 NE8       29.86S
$$

NYZ001>004-010>016-019>021-085-222300-
WEST


CITY           SKY/WX    TMP DP  RH WIND       PRES   REMARKS
NIAGARA FALLS  CLOUDY    57  50  77 SW9       29.79F HAZE
BUFFALO        CLOUDY    54  49  83 SW7       29.80F HAZE
DUNKIRK        PTCLDY    58  53  84 S9        29.80F
JAMESTOWN      CLOUDY    52  48  87 S6        29.83F VSB<1/4
WELLSVILLE     CLOUDY    56  50  80 W9        29.86S
ROCHESTER      MOCLDY    61  50  67 W5        29.81F
PENN YAN       CLOUDY    59  41  51 CALM      29.82S
$$

             KEY
       WCI = WIND CHILL INDEX
       VSB = VISIBILITY
       HX  = HEAT INDEX
$$




USA.gov is the U.S. government's official web portal to all federal, state and local government web resources and services.